078  
ASUS43 KDTX 282210  
RWRMI  
MICHIGAN HOURLY REGIONAL WEATHER ROUNDUP  
NATIONAL WEATHER SERVICE DETROIT/PONTIAC MI  
600 PM EDT SUN AUG 28 2016  
 
NOTE: "FAIR" INDICATES FEW OR NO CLOUDS BELOW 12,000 FEET WITH NO  
SIGNIFICANT WEATHER AND/OR TO VISIBILITY
.  
 
MIZ047>049-052>055-059>063-066>070-074>076-081>083-282300-  
SOUTHEAST LOWER MICHIGAN  
 
CITY SKY/WX TMP DP RH WIND PRES REMARKS
 
ADRIAN PTSUNNY 78 73 84 W6 30.19R  
ALMA SUNNY 81 68 63 CALM 30.19F  
ANN ARBOR CLOUDY 83 73 72 SW5 30.17S  
CARO SUNNY 77 67 70 NW6 30.18F  
DETROIT CITY MOSUNNY 81 71 71 S6 30.15F  
DETROIT PTSUNNY 81 74 79 S7 30.17S  
FLINT SUNNY 85 66 53 NW8 30.18F  
GROSSE ILE MOSUNNY 78 74 87 SW3 30.15S  
HILLSDALE CLOUDY 79 73 83 SW3 30.21S  
HOWELL MOSUNNY 82 68 61 N3 30.18F  
 
CITY SKY/WX TMP DP RH WIND PRES REMARKS
 
JACKSON CLOUDY 82 70 66 W5 30.19R  
LAMBERTVILLE MOSUNNY 77 72 86 CALM 30.18S  
LANSING SUNNY 82 65 56 NW6 30.20S  
LAPEER FAIR 82 67 62 NW5 30.18F  
MASON SUNNY 82 70 65 NW7 30.19S  
MONROE PTSUNNY 77 74 88 SW3 30.16S  
MT. CLEMENS MOSUNNY 81 74 79 S5 30.14F  
PONTIAC MOSUNNY 84 67 56 NW10 30.17S  
PORT HURON SUNNY 82 70 65 NW6 30.15F  
TRI CITIES SUNNY 80 66 62 W6 30.19F  
MIDLAND FAIR 81 65 58 SW5 30.18S  
TROY SUNNY 87 64 46 W8 30.18S  
SAGINAW HB SUNNY 81 64 57 NW7 30.18F  

 
MIZ043>046-050>051-056>058-064>065-071>073-077>080-282300-  
SOUTHWEST LOWER MICHIGAN  
 
CITY SKY/WX TMP DP RH WIND PRES REMARKS
 
BATTLE CREEK MOSUNNY 81 70 69 N6 30.19F  
BENTON HARBOR PTSUNNY 80 68 66 N7 30.17F  
BIG RAPIDS MOSUNNY 82 64 54 CALM 30.20S  
COLDWATER PTSUNNY 79 74 86 CALM 30.19F  
FREMONT FAIR 81 59 48 CALM 30.19F  
HOLLAND SUNNY 79 66 64 W6 30.20F  
GRAND RAPIDS MOSUNNY 84 64 50 NW5 30.19F  
IONIA FAIR 81 64 55 NW5 30.19S  
KALAMAZOO MOSUNNY 84 68 58 NW6 30.18F  
LUDINGTON CLOUDY 73 65 75 W5 30.20S  
MARSHALL MOSUNNY 86 68 54 W3 30.18S  
MOUNT PLEASANT SUNNY 82 66 58 W6 30.18F  
MUSKEGON MOSUNNY 77 65 66 W9 30.19F  
SOUTH HAVEN PTSUNNY 81 68 64 N6 30.18F  

 
MIZ016>042-282300-  
NORTHERN LOWER MICHIGAN  
 
CITY SKY/WX TMP DP RH WIND PRES REMARKS
 
ALPENA SUNNY 80 61 52 N7 30.18R  
BEAVER ISLAND MOSUNNY 73 65 75 SW8 30.20S  
BELLAIRE SUNNY 76 60 57 NW3 30.20S  
CADILLAC MOSUNNY 80 59 49 W6 30.21R  
CHARLEVOIX SUNNY 74 61 62 W8 30.23R  
FRANKFORT SUNNY 74 62 66 NW3 30.20S  
GAYLORD MOSUNNY 75 59 57 NW7 30.22R  
GRAYLING SUNNY 79 60 53 W3 30.22R  
HARBOR SPRINGS SUNNY 73 64 73 W5 30.20R  
HOUGHTON LAKE SUNNY 79 60 52 W6 30.21S  
MANISTEE SUNNY 75 65 70 VRB3 30.20S  
OSCODA MOSUNNY 76 66 72 E12 30.18S  
PELLSTON SUNNY 75 59 57 NW7 30.20R  
ROGERS CITY SUNNY 73 63 69 N6 30.19R  
TRAVERSE CITY MOSUNNY 76 64 66 NE9 30.19R  

 
MIZ007>008-015-282300-  
EASTERN UPPER MICHIGAN  
 
CITY SKY/WX TMP DP RH WIND PRES REMARKS
 
KINROSS MOSUNNY 69 62 78 N16G22 30.19R  
MACKINAC ISLAN SUNNY 71 64 77 W7 30.18S  
NEWBERRY MOSUNNY 74 59 59 N6 30.19S  
S. S. MARIE MOSUNNY 70 60 70 NW13 30.18R  

 
MIZ004>006-011>014-085-282300-  
CENTRAL UPPER MICHIGAN  
 
CITY SKY/WX TMP DP RH WIND PRES REMARKS
 
MANISTIQUE SUNNY 73 65 74 S6 30.18S  
ESCANABA SUNNY 75 62 64 S8 30.18S  
MENOMINEE SUNNY N/A N/A N/A S7 30.19R  
SAWYER-GWINN SUNNY 70 59 68 NE9 30.21S  

 
MIZ001>003-009>011-084-282300-  
WESTERN UPPER MICHIGAN  
 
CITY SKY/WX TMP DP RH WIND PRES REMARKS
 
IRON MOUNTAIN CLOUDY 80 56 43 CALM 30.17F  
HOUGHTON MOSUNNY 74 61 63 N7 30.18F  
IRONWOOD PTSUNNY 78 59 51 S6 30.17F  

 
 
ABBREVIATIONS USED IN REMARKS  
TC - TEMPERATURE IN CELSIUS  
WCI - WIND CHILL INDEX  
HX - HEAT INDEX  
VSB - VISIBILITY  
 
 
 
CLICK HERE TO GO TO PREVIOUS BULLETINS.

The Nexlab MI Page Main Text Page